Voltar ao catálogo

STARLINK-1797

AtivoComunicaçõesVLEO
NORAD 46698·PAYLOAD·🇺🇸 United States

Lançado Oct 18, 2020 de Cape Canaveral Space Force Station

Loading…

Próximas Passagens (próximas 24 horas)

TLE

AtualizadoSource: CelesTrak SupGP

Época: Sep 15, 2026, 02:10 UTC

1 46698C 20073AE  26258.09076389  .00373430  00000+0  91224-3 0  2588
2 46698  53.0299 350.8105 0009676 347.0299  34.9927 15.95169695    18

Acompanhe STARLINK-1797 em tempo real com AllMySat

Download on the App Store